Location: �perlecques
(50.8057°N, 2.1521°E)
Time: 14:06:02
(UTC+00:00)

Courier 1B - All Passes

Search period start: 04 August 2021 00:00
Search period end: 14 August 2021 00:00
Orbit: 962 x 1209 km, 28.3° (Epoch: 03 August)

Date Brightness Start Highest point End Pass type
(mag) Time Alt. Az. Time Alt. Az. Time Alt. Az.
04 Aug - 17:59:32 10° S 18:01:01 11° SSE 18:02:31 10° SSE daylight
04 Aug - 19:50:49 10° SSW 19:53:37 12° S 19:56:24 10° SSE daylight
05 Aug - 18:57:07 10° SSW 19:00:06 12° S 19:03:05 10° SSE daylight
06 Aug - 18:03:46 10° SSW 18:06:35 12° S 18:09:26 10° SSE daylight
06 Aug - 19:57:27 10° SSW 19:59:11 11° SSW 20:00:55 10° S visible
07 Aug - 17:10:48 10° S 17:13:05 11° S 17:15:22 10° SSE daylight
07 Aug - 19:03:05 10° SSW 19:05:41 12° S 19:08:17 10° SSE daylight
08 Aug - 16:19:05 10° S 16:19:36 10° SSE 16:20:07 10° SSE daylight
08 Aug - 18:09:15 10° SSW 18:12:11 12° S 18:15:07 10° SSE daylight
09 Aug - 17:15:47 10° SSW 17:18:40 12° S 17:21:33 10° SSE daylight
10 Aug - 16:22:42 10° SSW 16:25:10 12° S 16:27:39 10° SSE daylight
10 Aug - 18:15:48 10° SSW 18:17:45 11° S 18:19:42 10° S daylight
11 Aug - 15:30:15 10° S 15:31:41 11° S 15:33:08 10° SSE daylight
11 Aug - 17:21:46 10° SSW 17:24:15 12° S 17:26:45 10° SSE daylight
12 Aug - 16:28:12 10° SSW 16:30:45 12° S 16:33:21 10° SSE daylight
13 Aug - 15:34:59 10° SSW 15:37:17 12° S 15:39:36 10° SSE daylight
